Regional Weather Roundup
Issued by NWS Sterling, VA

Home | Current Version | Previous Version | Graphics & Text | Print | Product List | Glossary On
Versions: 1 2 3 4 5 6 7 8 9 10 11 12 13 14 15 16 17 18 19 20 21 22 23 24 25 26 27 28 29 30 31 32 33 34 35 36 37 38 39 40 41 42 43 44 45 46 47 48 49 50
747
ASUS41 KLWX 220911
RWRLWX

REGIONAL WEATHER ROUNDUP
NATIONAL WEATHER SERVICE BALTIMORE MD/WASHINGTON DC
500 AM EDT SUN APR 22 2018

Note: "FAIR" indicates few or no clouds below 12,000 feet
with no significant weather and/or obstructions to visibility.
 TC=TEMPERATURE CELSIUS

 * =Non NWS site. Station does not report precipitation (e.g. rain,
    snow, etc.), thunder, or fog.

DCZ001-MDZ009-015-VAZ040>042-051-053>054-221000-
WASHINGTON METRO

CITY           SKY/WX    TMP DP  RH WIND       PRES   REMARKS
WASHINGTON NAT MOCLDY    49  38  65 S6        30.39R
DULLES         CLOUDY    47  37  68 S3        30.37S
ANDREWS AFB    FAIR      46  37  73 S3        30.37R
FT BELVOIR     FAIR      44  38  79 CALM      30.38S
QUANTICO       FAIR      48  42  80 CALM      30.39S
COLLEGE PARK*  FAIR      45  38  75 CALM      30.38S
LEESBURG*      FAIR      48  37  66 S3        30.38S
MANASSAS*      FAIR      41  39  93 CALM      30.38S
GAITHERSBURG*  FAIR      46  35  65 CALM      30.38S

$$

MDZ006>007-011-014-221000-
BALTIMORE METRO

CITY           SKY/WX    TMP DP  RH WIND       PRES   REMARKS
BWI AIRPORT    MOCLDY    44  37  76 CALM      30.38R
MD SCIENCE CTR   N/A     52  37  56 MISG      30.39R
MARTIN STATE   FAIR      46  41  81 CALM      30.41S
ANNAPOLIS      FAIR      49  40  71 CALM      30.38S
FORT MEADE*    FAIR      41  36  81 CALM      30.41S

$$

MDZ012-015-019>023-221000-
MARYLAND EASTERN SHORE

CITY           SKY/WX    TMP DP  RH WIND       PRES   REMARKS
OCEAN CITY     FAIR      44  41  89 W7        30.39S
SALISBURY      FAIR      43  40  89 CALM      30.38S
BAY BRIDGE AP* FAIR      48  39  71 CALM      30.39R
CAMBRIDGE*     PTCLDY    43  41  93 CALM      30.39R
EASTON*        FAIR      46  42  84 CALM      30.42S

$$

MDZ017>025-221000-
SOUTHERN MARYLAND

CITY           SKY/WX    TMP DP  RH WIND       PRES   REMARKS
PATUXENT RIVER FAIR      48  40  73 SW5       30.38S
ST INIGOES     FAIR      44  40  85 CALM      30.38S
LEONARDTOWN*   FAIR      43  37  81 SW3       30.40S

$$

MDZ003>005-221000-
NORTH CENTRAL MARYLAND

CITY           SKY/WX    TMP DP  RH WIND       PRES   REMARKS
FREDERICK*     FAIR      43  34  70 N3        30.41R
HAGERSTOWN APT CLOUDY    50  29  44 NE5       30.36S
WESTMINSTER*   CLOUDY    46  34  61 NE5       30.37S

$$

MDZ501>502-221000-
WESTERN MARYLAND

CITY           SKY/WX    TMP DP  RH WIND       PRES   REMARKS
OAKLAND*       FAIR      41  19  42 E9        30.29F
CUMBERLAND*    FAIR      46  30  53 N5        30.37F

$$

VAZ025>031-221000-
SHENANDOAH VALLEY

CITY           SKY/WX    TMP DP  RH WIND       PRES   REMARKS
WINCHESTER*    FAIR      41  34  75 CALM      30.36S
FRONT ROYAL*   FAIR      41  34  75 CALM      30.33S
LURAY*         FAIR      41  36  81 CALM      30.33F
NEW MARKET*    FAIR      39  32  75 CALM      30.33S
STAUNTON*      FAIR      42  35  77 CALM      30.35S
WAYNESBORO*    FAIR      48  30  48 CALM      30.32F

$$

WVZ021-048>050-054>055-221000-
EASTERN WEST VIRGINIA PANHANDLE

CITY           SKY/WX    TMP DP  RH WIND       PRES   REMARKS
MARTINSBURG    MOCLDY    45  37  73 NE3       30.34S
PETERSBURG*    FAIR      38  33  82 CALM      30.34S

$$

VAZ036>039-050-221000-
CENTRAL FOOTHILLS

CITY           SKY/WX    TMP DP  RH WIND       PRES   REMARKS
CHARLOTTESVILL FAIR      50  33  52 N3        30.34S
CULPEPER*      FAIR      40  36  84 CALM      30.38S
ORANGE*        FAIR      45  39  81 CALM      30.36S
GORDONSVILLE*  FAIR      46  40  78 CALM      30.35S
WARRENTON*     FAIR      38  34  85 CALM      30.36F

$$

VAZ055>057-221000-
NORTH AND CENTRAL PIEDMONT

CITY           SKY/WX    TMP DP  RH WIND       PRES   REMARKS
FREDERICKSBRG* FAIR      48  40  75 CALM      30.37F
STAFFORD*      FAIR      43  38  85 CALM      30.41S

$$

NCZ024-NYZ072-PAZ021-071-VAZ022-071-221000-
OTHER REGIONAL OBSERVATIONS

CITY           SKY/WX    TMP DP  RH WIND       PRES   REMARKS
NEW YORK CITY  FAIR      46  18  32 VRB3      30.40S
PHILADELPHIA   MOCLDY    45  28  51 CALM      30.40R
PITTSBURGH     MOCLDY    46  23  40 E8        30.31F
ROANOKE        FAIR      47  34  60 CALM      30.34S
RICHMOND       MOCLDY    45  42  89 SE3       30.38S
RALEIGH        FAIR      46  40  79 CALM      30.35F

$$

ANZ530>537-221000-
MARINE OBSERVATIONS

STATION/POSITION TIME  TEMP    WIND        PRES
                       AIR SEA DIR/SP/G
                 (UTC) (F)     (DEG/KT/KT) (MB)
THOMAS PT LIGHT  0900   49 51  230/  4/  5 1029.9R
BALT KEY BRIDGE  0848   49      CALM  /  2 1029.0R
COVE POINT       0848   49     200/  5/  7 1029.5R
LEWISETTA        0848   48 54  230/  8/  9 1028.8F
SOLOMONS ISLAND  0848   48 53  290/  1/  3 1028.6R
PINEY POINT      0848          240/  3/  4   N/A

$$





USA.gov is the U.S. government's official web portal to all federal, state and local government web resources and services.